Baileyville, IL

10:21 PM CDT on July 28, 2016 (GMT -0500)
Albertus

Weather History for KFEP - January, 2014

Change the Weather History Date:

Wednesday, January 15, 2014

  Actual Average Record
Temperature  
Mean Temperature 16 °F -  
Max Temperature 21 °F 26 °F 46 °F (1987)
Min Temperature 11 °F 6 °F -18 °F (1979)
Degree Days  
Heating Degree Days 49    
Moisture  
Dew Point 9 °F    
Average Humidity 78    
Maximum Humidity 85    
Minimum Humidity 69    
Precipitation  
Precipitation 0.00 in - - ()
Sea Level Pressure  
Sea Level Pressure 30.00 in    
Wind  
Wind Speed 11 mph (WSW)    
Max Wind Speed 24 mph    
Max Gust Speed 31 mph    
Visibility 10 miles    
Events Snow    
Averages and records for this station are not official NWS values.
T = Trace of Precipitation, MM = Missing Value Source: NWS Daily Summary

Daily Weather History Graph

Daily Weather History Graph

Search for Another Location

Airport or City:

Trip Planner

Search our weather history database for the weather conditions in past years. The results will help you decide how hot, cold, wet, or windy it might be!

Date:

Astronomy

Jan. 15, 2014 Rise Set
Actual Time 7:24 AM CST 4:51 PM CST
Civil Twilight 6:53 AM CST 5:22 PM CST
Nautical Twilight 6:18 AM CST 5:56 PM CST
Astronomical Twilight 5:45 AM CST 6:30 PM CST
Moon 4:50 PM CST (1/15) 6:39 AM CST (1/15)
Length of Visible Light 10h 28m
Length of Day
9h 26m
Full, 100% of the Moon is Illuminated
Jan 15
Full
Jan 15
Full
Jan 23
Last Quarter
Jan 30
New
Feb 6
First Quarter

Hourly Weather History & Observations

Time (CST) Temp. Windchill Dew Point Humidity Pressure Visibility Wind Dir Wind Speed Gust Speed Precip Events Conditions
12:15 AM 18.5 °F 5.5 °F 13.1 °F 79% 29.96 in 10.0 mi WNW 12.7 mph 19.6 mph N/A   Overcast
12:35 AM 18.3 °F 5.9 °F 12.9 °F 79% 29.96 in 10.0 mi NW 11.5 mph 16.1 mph N/A   Scattered Clouds
12:55 AM 16.3 °F 2.1 °F 10.9 °F 79% 29.97 in 10.0 mi NW 13.8 mph 19.6 mph N/A   Scattered Clouds
1:15 AM 16.2 °F 3.9 °F 10.8 °F 79% 29.98 in 10.0 mi NW 10.4 mph - N/A   Scattered Clouds
1:35 AM 16.2 °F 3.9 °F 10.9 °F 80% 29.98 in 10.0 mi NW 10.4 mph - N/A   Clear
1:55 AM 16.2 °F 3.2 °F 10.8 °F 79% 30.00 in 10.0 mi NW 11.5 mph 16.1 mph N/A   Scattered Clouds
2:15 AM 15.8 °F 2.7 °F 10.0 °F 78% 30.01 in 10.0 mi NW 11.5 mph 19.6 mph N/A   Clear
2:35 AM 14.9 °F 1.6 °F 9.1 °F 78% 30.01 in 10.0 mi WNW 11.5 mph - N/A   Clear
2:55 AM 14.9 °F 4.0 °F 9.0 °F 77% 30.01 in 10.0 mi WNW 8.1 mph - N/A   Clear
3:15 AM 13.8 °F 1.8 °F 8.2 °F 78% 30.02 in 10.0 mi WNW 9.2 mph - N/A   Clear
3:35 AM 13.8 °F 1.8 °F 8.1 °F 78% 30.02 in 10.0 mi WNW 9.2 mph - N/A   Clear
3:55 AM 13.6 °F 0.7 °F 7.9 °F 78% 30.02 in 10.0 mi WNW 10.4 mph - N/A   Clear
4:15 AM 13.6 °F 0.7 °F 7.7 °F 77% 30.03 in 10.0 mi WNW 10.4 mph - N/A   Clear
4:35 AM 13.6 °F 1.6 °F 8.1 °F 78% 30.03 in 10.0 mi WNW 9.2 mph - N/A   Clear
4:55 AM 13.6 °F 2.5 °F 8.4 °F 80% 30.03 in 10.0 mi West 8.1 mph - N/A   Clear
5:15 AM 13.6 °F 1.6 °F 9.0 °F 82% 30.04 in 10.0 mi WNW 9.2 mph - N/A   Scattered Clouds
5:35 AM 13.6 °F 1.6 °F 9.1 °F 82% 30.05 in 10.0 mi WNW 9.2 mph - N/A Snow Light Snow
5:55 AM 13.6 °F 1.6 °F 8.6 °F 80% 30.06 in 10.0 mi West 9.2 mph - N/A Snow Light Snow
6:15 AM 13.6 °F 1.6 °F 8.6 °F 80% 30.06 in 10.0 mi WNW 9.2 mph - N/A   Overcast
6:35 AM 13.6 °F 2.5 °F 8.6 °F 80% 30.06 in 10.0 mi West 8.1 mph - N/A   Overcast
6:55 AM 11.3 °F 5.1 °F 6.6 °F 81% 30.06 in 10.0 mi West 3.5 mph - N/A Snow Light Snow
7:15 AM 11.1 °F 1.7 °F 6.6 °F 82% 30.07 in 10.0 mi West 5.8 mph - N/A Snow Light Snow
7:35 AM 13.1 °F 1.8 °F 8.2 °F 81% 30.08 in 10.0 mi West 8.1 mph - N/A   Overcast
7:55 AM 11.7 °F 0.0 °F 6.4 °F 80% 30.08 in 10.0 mi West 8.1 mph - N/A   Overcast
8:15 AM 11.1 °F -1.6 °F 5.9 °F 80% 30.10 in 10.0 mi WNW 9.2 mph 16.1 mph N/A   Overcast
8:35 AM 11.1 °F -1.6 °F 5.9 °F 80% 30.10 in 10.0 mi WNW 9.2 mph - N/A   Overcast
8:55 AM 11.1 °F -1.6 °F 5.9 °F 80% 30.10 in 10.0 mi WNW 9.2 mph - N/A   Overcast
9:15 AM 11.1 °F -1.6 °F 5.9 °F 80% 30.10 in 10.0 mi WNW 9.2 mph - N/A   Mostly Cloudy
9:35 AM 12.0 °F -1.3 °F 6.1 °F 77% 30.10 in 10.0 mi WNW 10.4 mph - N/A   Scattered Clouds
9:55 AM 13.1 °F -2.0 °F 6.8 °F 76% 30.10 in 10.0 mi WNW 13.8 mph - N/A   Clear
10:15 AM 13.6 °F 0.0 °F 7.5 °F 77% 30.11 in 10.0 mi WNW 11.5 mph - N/A   Clear
10:35 AM 13.6 °F 0.0 °F 7.3 °F 76% 30.11 in 10.0 mi WNW 11.5 mph - N/A   Clear
10:55 AM 13.6 °F 0.0 °F 7.3 °F 76% 30.10 in 10.0 mi West 11.5 mph - N/A   Clear
11:15 AM 13.6 °F 0.0 °F 7.2 °F 75% 30.10 in 10.0 mi West 11.5 mph - N/A   Clear
11:35 AM 13.6 °F -0.7 °F 7.3 °F 76% 30.10 in 10.0 mi WNW 12.7 mph - N/A   Clear
11:55 AM 13.6 °F 1.6 °F 7.3 °F 76% 30.08 in 10.0 mi WNW 9.2 mph - N/A   Clear
12:15 PM 13.6 °F 0.0 °F 7.0 °F 75% 30.08 in 10.0 mi WNW 11.5 mph - N/A   Clear
12:35 PM 14.2 °F 1.4 °F 7.5 °F 75% 30.07 in 10.0 mi WNW 10.4 mph - N/A   Clear
12:55 PM 14.7 °F 2.9 °F 7.5 °F 73% 30.06 in 10.0 mi West 9.2 mph - N/A   Clear
1:15 PM 14.9 °F 6.1 °F 7.7 °F 73% 30.04 in 10.0 mi West 5.8 mph - N/A   Clear
1:35 PM 16.2 °F 5.5 °F 8.4 °F 72% 30.04 in 10.0 mi West 8.1 mph - N/A   Clear
1:55 PM 16.2 °F 9.0 °F 7.9 °F 70% 30.03 in 10.0 mi West 4.6 mph - N/A   Clear
2:15 PM 16.2 °F 6.5 °F 7.9 °F 70% 30.03 in 10.0 mi WSW 6.9 mph - N/A   Clear
2:35 PM 16.3 °F 4.9 °F 7.7 °F 69% 30.03 in 10.0 mi SW 9.2 mph - N/A   Clear
2:55 PM 16.2 °F 3.9 °F 8.1 °F 70% 30.04 in 10.0 mi WSW 10.4 mph - N/A   Clear
3:15 PM 16.2 °F 2.5 °F 8.8 °F 73% 30.03 in 10.0 mi SW 12.7 mph - N/A   Clear
3:35 PM 16.2 °F 2.5 °F 8.4 °F 72% 30.03 in 10.0 mi SW 12.7 mph - N/A   Clear
3:55 PM 14.9 °F 0.9 °F 7.5 °F 73% 30.03 in 10.0 mi SW 12.7 mph - N/A   Clear
4:15 PM 14.9 °F 2.3 °F 8.1 °F 74% 30.03 in 10.0 mi SW 10.4 mph - N/A   Clear
4:55 PM 13.6 °F 1.6 °F 7.2 °F 75% 30.01 in 10.0 mi SW 9.2 mph - N/A   Clear
5:15 PM 13.6 °F 2.5 °F 7.7 °F 77% 30.00 in 10.0 mi SW 8.1 mph - N/A   Clear
5:35 PM 13.6 °F 2.5 °F 8.2 °F 79% 29.99 in 10.0 mi SSW 8.1 mph - N/A   Clear
5:55 PM 13.6 °F 3.5 °F 8.4 °F 80% 29.99 in 10.0 mi SSW 6.9 mph - N/A   Scattered Clouds
6:15 PM 13.6 °F 6.0 °F 8.6 °F 80% 29.99 in 10.0 mi SSW 4.6 mph - N/A   Clear
6:35 PM 13.6 °F 6.0 °F 8.6 °F 80% 29.98 in 10.0 mi South 4.6 mph - N/A   Scattered Clouds
6:55 PM 13.6 °F 2.5 °F 9.3 °F 83% 29.97 in 10.0 mi SSW 8.1 mph - N/A   Mostly Cloudy
7:15 PM 13.6 °F 2.5 °F 9.3 °F 83% 29.95 in 10.0 mi South 8.1 mph - N/A   Overcast
7:35 PM 13.6 °F 1.6 °F 9.5 °F 84% 29.94 in 10.0 mi SSW 9.2 mph - N/A   Mostly Cloudy
7:55 PM 13.8 °F 1.8 °F 9.7 °F 84% 29.92 in 10.0 mi South 9.2 mph - N/A   Overcast
8:15 PM 15.1 °F 1.8 °F 10.9 °F 84% 29.90 in 10.0 mi South 11.5 mph - N/A   Overcast
8:35 PM 16.2 °F 2.5 °F 12.0 °F 84% 29.88 in 10.0 mi South 12.7 mph - N/A   Overcast
8:55 PM 16.7 °F 3.2 °F 12.4 °F 83% 29.87 in 10.0 mi SSW 12.7 mph - N/A   Overcast
9:15 PM 18.5 °F 2.9 °F 14.0 °F 83% 29.86 in 10.0 mi SSW 18.4 mph - N/A   Overcast
9:35 PM 18.5 °F 4.3 °F 14.0 °F 83% 29.85 in 10.0 mi SSW 15.0 mph 23.0 mph N/A   Overcast
9:55 PM 19.0 °F 4.0 °F 14.0 °F 81% 29.84 in 10.0 mi SSW 17.3 mph - N/A   Overcast
10:15 PM 19.4 °F 3.2 °F 14.7 °F 82% 29.80 in 10.0 mi South 20.7 mph 26.5 mph N/A   Overcast
10:35 PM 19.9 °F 3.5 °F 15.3 °F 82% 29.79 in 10.0 mi South 21.9 mph 28.8 mph N/A   Overcast
10:55 PM 21.2 °F 6.0 °F 16.5 °F 82% 29.79 in 10.0 mi SSW 19.6 mph 23.0 mph N/A   Overcast
11:15 PM 21.2 °F 6.0 °F 16.3 °F 82% 29.78 in 10.0 mi South 19.6 mph 25.3 mph N/A   Overcast
11:35 PM 21.2 °F 6.4 °F 16.5 °F 82% 29.76 in 10.0 mi South 18.4 mph 25.3 mph N/A   Overcast
11:55 PM 21.2 °F 4.5 °F 17.2 °F 85% 29.73 in 7.0 mi SSW 24.2 mph 31.1 mph N/A   Overcast